Wind_Speed
25 25 23 22 23 26 28 31 26 22 25 27 23 14 3 10 19 20 21 19 20 27 28 15 19 20 15 10 11 12 8 3 6 7 11 16 14 11 8 10 11 11 13
30 23 23 21 22 25 26 22 20 22 24 24 19 10 3 11 27 32 28 16 16 18 22 20 16 21 16 10 11 11 11 5 4 4 8 11 14 13 12 8 8 9 10
30 28 23 21 20 24 24 19 18 20 22 21 18 7 1 13 26 41 37 28 19 19 17 21 19 20 15 9 12 17 10 6 4 3 3 6 10 10 13 10 4 6 6
26 26 26 25 20 20 19 18 16 19 20 19 16 8 5 13 21 37 41 36 26 25 18 20 22 18 19 12 18 13 10 6 6 5 2 4 9 7 8 12 9 3 3
22 23 19 16 18 17 14 14 15 19 19 22 17 9 5 14 20 31 44 39 28 27 25 20 20 20 17 14 13 11 12 8 6 5 4 4 8 8 6 9 11 11 8
23 21 19 16 13 9 9 12 15 18 18 22 18 12 7 12 23 29 45 43 32 25 31 29 21 19 19 13 6 11 14 10 11 9 3 2 6 8 4 4 8 10 10
24 20 17 12 8 8 5 9 15 14 18 22 21 15 11 9 18 26 45 45 32 27 25 25 26 24 21 19 14 14 13 7 12 10 6 3 3 5 8 11 7 8 10
22 19 12 10 4 2 4 6 12 14 18 22 25 17 13 9 9 19 30 38 37 28 28 27 25 26 22 20 17 14 14 11 9 12 8 3 3 4 5 9 10 10 11
19 16 11 7 1 6 5 4 12 16 17 20 26 24 16 13 9 13 23 28 40 28 28 20 27 26 24 19 18 15 13 11 9 9 9 5 4 4 4 2 10 11 11
17 13 5 6 5 10 10 7 13 15 18 19 24 27 21 18 16 14 16 23 36 32 30 25 18 25 23 19 20 18 15 15 14 12 12 10 11 9 8 6 5 12 11
15 9 3 4 9 13 14 8 11 18 18 18 22 24 24 19 19 18 18 14 30 34 24 24 21 22 20 19 22 21 19 18 16 15 15 14 13 12 9 6 5 4 9
13 6 6 8 11 14 16 11 13 16 19 21 22 23 24 19 15 13 12 13 13 21 30 27 22 21 23 21 20 24 21 19 19 20 17 17 15 13 11 9 5 6 6
8 1 11 12 14 17 16 14 16 15 17 16 18 20 21 18 16 16 11 9 9 11 14 17 19 17 20 19 18 21 27 23 22 20 23 21 19 16 13 12 10 9 5
6 6 12 13 13 17 17 14 10 9 12 12 11 15 18 17 16 11 12 11 10 8 10 11 12 16 17 17 17 17 17 23 28 21 25 25 22 19 16 15 14 12 12
9 13 11 15 14 14 16 15 7 7 6 7 9 3 10 11 8 10 11 14 16 15 13 7 7 11 15 15 18 22 21 20 20 27 26 25 24 20 19 17 16 16 14
17 16 14 10 6 14 17 11 12 13 8 6 5 2 1 4 3 7 8 10 9 12 13 13 7 3 1 11 17 18 22 23 22 27 26 23 23 21 22 22 19 17 17
21 27 14 8 3 7 13 17 16 13 11 13 9 5 2 0 6 4 3 5 4 4 5 7 7 6 2 2 4 7 19 24 25 25 24 27 26 26 25 26 22 22 22
24 25 10 6 5 6 10 17 16 13 14 20 12 8 7 7 10 11 7 3 3 1 1 4 7 6 4 5 8 9 12 13 24 27 32 31 33 33 30 29 30 23 24
14 18 10 8 11 15 15 19 18 15 18 19 19 11 12 11 14 11 8 4 9 6 5 6 9 7 10 13 17 17 16 17 18 22 27 33 36 36 37 33 30 28 28
3 4 10 19 22 12 20 13 19 22 24 24 19 16 14 17 17 17 15 12 10 11 9 10 11 15 17 20 23 27 27 23 22 24 29 33 33 37 39 33 28 28 30
7 10 11 11 11 12 24 28 19 24 32 31 24 23 19 21 18 19 13 13 14 18 16 13 16 23 23 27 32 36 36 31 29 30 31 33 38 39 38 38 33 29 32
9 2 10 8 1 11 12 18 23 33 32 35 32 28 28 26 23 20 20 18 18 18 21 21 22 27 31 34 39 42 38 32 32 33 33 34 37 40 41 41 39 35 32
13 7 8 6 9 14 13 19 23 26 32 31 31 27 30 31 25 22 20 23 20 21 25 28 28 35 36 35 37 36 28 27 26 30 32 33 34 34 35 38 45 40 35
15 13 13 10 14 21 27 29 27 36 31 31 28 28 30 31 30 27 27 24 23 27 31 31 33 33 34 32 34 28 20 16 18 21 24 26 29 34 36 40 37 38 41
26 22 21 23 25 27 28 30 36 36 23 26 27 35 29 29 31 33 30 31 30 34 33 32 31 35 30 28 25 19 12 9 12 17 19 21 26 29 32 39 39 42 37
19 32 29 26 30 26 27 34 36 31 23 31 26 30 31 32 31 34 32 36 37 35 32 32 32 30 26 26 21 16 9 8 9 14 15 20 23 26 28 32 38 43 43
Wind_Direction
309 308 304 305 310 312 316 314 318 326 333 337 333 322 264 188 157 159 160 201 194 213 212 220 202 214 226 227 199 185 185 229 60 63 35 33 56 73 90 85 82 69 68
300 303 306 307 308 312 316 320 329 334 344 343 336 331 251 184 162 170 175 171 201 212 220 221 206 210 221 206 211 212 230 227 118 50 33 17 46 64 77 100 99 84 75
309 297 304 311 307 310 316 323 333 339 352 355 350 343 193 181 172 170 173 169 174 195 198 217 213 206 203 203 212 226 240 170 177 130 25 353 29 57 66 81 109 85 76
319 308 303 305 307 318 316 323 334 344 5 8 7 351 154 175 179 179 174 166 174 177 183 195 204 203 212 209 196 227 236 205 174 169 32 331 350 68 59 81 79 84 37
324 321 311 314 307 312 324 325 334 355 10 18 14 31 124 159 170 172 174 170 174 185 181 170 204 213 208 206 194 200 216 198 185 162 78 31 8 355 81 64 75 69 56
328 324 332 306 306 305 327 331 337 3 14 22 26 56 98 150 167 173 176 173 180 186 205 204 187 203 204 195 190 197 212 205 173 168 233 43 5 9 25 52 57 45 41
324 324 330 323 299 306 312 329 351 20 25 31 37 67 90 121 163 171 181 182 178 192 198 191 192 200 206 199 186 205 202 205 198 190 194 221 285 1 345 34 34 45 37
325 324 328 334 294 275 260 332 14 35 31 40 45 55 93 107 140 179 182 189 182 187 199 212 210 206 200 207 202 187 175 163 233 203 218 260 296 315 337 275 12 25 32
325 326 332 353 188 179 196 9 47 33 41 48 49 51 63 79 118 165 186 185 189 191 195 211 209 211 198 199 207 200 187 184 196 200 215 202 269 213 302 257 320 347 355
329 333 356 25 142 159 161 89 46 49 65 61 58 58 59 70 78 105 156 186 183 189 201 197 209 202 198 196 208 205 192 194 199 199 205 195 231 242 247 243 252 308 328
333 343 70 72 143 145 156 113 64 79 74 74 68 66 63 73 87 86 96 134 189 189 191 202 210 211 202 203 214 212 208 211 215 215 217 230 238 248 248 205 210 244 294
331 348 119 135 144 145 146 134 110 97 77 81 77 75 66 69 90 100 110 120 139 192 214 218 226 219 221 206 212 214 223 224 222 224 228 240 249 250 246 252 236 255 268
344 25 123 137 146 147 145 132 123 113 91 80 88 91 76 71 79 82 94 122 139 156 181 195 204 204 205 209 213 219 227 232 237 234 233 239 243 237 236 235 241 254 256
44 76 104 122 136 152 146 142 135 107 105 82 83 83 79 81 89 100 92 97 86 110 185 190 197 206 207 225 229 229 226 233 234 237 234 241 246 241 234 230 239 259 254
74 91 112 129 145 141 144 131 147 158 148 122 119 91 63 64 85 85 82 91 87 89 84 117 199 213 223 234 237 239 232 237 239 238 236 241 250 239 230 231 246 234 252
105 91 85 98 109 136 152 161 203 196 193 200 163 203 75 75 151 93 86 95 88 82 74 74 79 101 228 245 252 250 244 245 242 234 239 237 236 229 232 229 239 246 257
113 112 90 79 111 165 175 188 201 214 227 246 227 238 296 136 213 188 123 107 96 96 70 73 51 56 20 298 299 289 255 253 248 240 235 231 229 226 227 231 231 241 253
140 140 142 165 201 236 249 258 238 222 228 236 257 255 230 239 213 227 234 231 190 302 15 55 2 334 334 329 299 284 278 272 253 244 242 240 237 234 237 238 246 239 247
149 161 151 231 237 237 278 246 233 237 240 238 247 230 210 239 213 219 223 230 227 247 274 305 327 328 314 308 320 313 285 266 262 258 255 246 240 240 245 248 249 236 240
55 205 150 270 261 266 290 263 240 246 251 237 239 229 238 236 219 234 236 254 240 239 256 281 301 309 303 308 304 312 304 287 272 265 254 247 246 243 243 239 239 238 236
316 257 270 260 270 248 242 262 269 255 264 245 241 241 245 234 239 255 245 245 246 245 256 271 303 320 305 308 307 304 307 287 273 265 260 250 246 244 236 234 236 236 237
288 237 165 211 35 66 58 22 350 273 259 245 246 250 239 235 245 255 260 248 249 253 266 294 301 309 311 303 307 307 302 283 266 257 253 249 246 247 243 236 238 242 244
299 297 248 238 256 261 285 322 333 320 258 251 243 246 240 241 246 247 253 248 252 265 280 291 299 305 310 307 311 310 298 275 263 255 251 252 243 246 248 244 236 244 243
263 278 280 253 241 259 276 288 306 327 252 249 240 240 241 246 252 253 256 254 265 282 285 290 298 305 306 307 310 307 295 261 251 250 253 253 248 241 244 247 242 245 246
236 257 281 263 252 257 258 282 301 314 248 231 230 233 244 252 252 255 257 267 279 287 285 289 301 301 302 305 303 303 288 264 253 251 253 258 251 248 245 240 245 242 243
254 239 257 259 251 261 289 300 304 306 237 219 221 240 244 250 252 257 265 272 277 280 289 292 292 298 305 304 301 299 270 265 256 257 257 261 261 257 252 247 243 241 243
Height
10974 10971 10968 10966 10963 10960 10958 10955 10951 10948 10944 10938 10932 10930 10929 10932 10938 10946 10953 10955 10957 10961 10963 10965 10969 10971 10974 10977 10979 10980 10980 10981 10982 10981 10980 10980 10979 10977 10977 10977 10977 10976 10975
10970 10967 10965 10963 10960 10957 10954 10951 10947 10944 10940 10936 10930 10928 10926 10930 10936 10944 10950 10955 10958 10960 10963 10965 10968 10970 10973 10976 10978 10979 10980 10980 10982 10982 10981 10981 10980 10978 10978 10978 10978 10978 10977
10964 10962 10961 10960 10957 10955 10952 10948 10944 10941 10937 10932 10928 10926 10925 10929 10934 10939 10945 10952 10955 10958 10962 10962 10965 10968 10972 10974 10978 10979 10980 10980 10982 10982 10982 10981 10981 10980 10979 10979 10980 10979 10979
10960 10956 10956 10955 10953 10951 10949 10947 10943 10939 10936 10932 10928 10925 10924 10926 10930 10936 10940 10947 10955 10957 10960 10961 10964 10967 10970 10974 10978 10979 10980 10982 10982 10983 10982 10982 10982 10981 10981 10981 10981 10981 10980
10957 10954 10952 10951 10950 10949 10946 10944 10942 10939 10937 10932 10927 10923 10924 10925 10928 10934 10938 10946 10953 10956 10958 10961 10964 10967 10970 10973 10976 10978 10979 10981 10982 10983 10983 10983 10983 10983 10982 10982 10981 10982 10981
10955 10952 10949 10948 10948 10946 10945 10943 10941 10939 10938 10933 10927 10924 10924 10926 10928 10932 10938 10945 10951 10954 10956 10960 10962 10965 10970 10973 10976 10977 10978 10980 10981 10983 10984 10983 10984 10983 10983 10983 10983 10982 10981
10952 10949 10947 10945 10946 10945 10945 10944 10942 10940 10938 10936 10930 10927 10927 10929 10932 10933 10938 10943 10949 10953 10956 10959 10962 10965 10968 10973 10974 10976 10978 10979 10982 10982 10983 10984 10984 10984 10985 10984 10983 10982 10981
10948 10946 10945 10943 10943 10944 10945 10945 10943 10942 10940 10938 10934 10931 10929 10930 10932 10934 10938 10943 10949 10954 10956 10957 10962 10964 10968 10971 10973 10976 10977 10979 10981 10982 10984 10985 10985 10985 10985 10984 10984 10983 10982
10945 10943 10942 10941 10940 10942 10945 10946 10945 10944 10943 10940 10938 10936 10934 10931 10932 10934 10939 10943 10949 10953 10956 10957 10961 10964 10967 10970 10973 10975 10977 10979 10981 10982 10983 10984 10985 10985 10985 10984 10985 10984 10983
10942 10940 10939 10939 10939 10940 10944 10947 10947 10947 10946 10944 10943 10941 10938 10937 10935 10935 10937 10943 10949 10953 10956 10958 10960 10963 10966 10970 10972 10975 10976 10977 10979 10980 10982 10982 10983 10984 10984 10985 10985 10985 10984
10939 10937 10936 10936 10937 10939 10943 10947 10949 10949 10947 10946 10946 10945 10943 10943 10941 10941 10943 10946 10950 10954 10957 10958 10961 10963 10967 10969 10971 10973 10976 10978 10979 10979 10981 10981 10982 10983 10984 10983 10984 10984 10984
10934 10933 10932 10933 10935 10938 10943 10944 10947 10948 10948 10949 10948 10947 10947 10947 10946 10946 10947 10949 10950 10955 10957 10959 10961 10962 10965 10968 10970 10972 10975 10976 10978 10979 10979 10980 10980 10981 10983 10983 10983 10983 10983
10932 10930 10929 10931 10934 10937 10943 10946 10946 10948 10950 10951 10952 10951 10949 10950 10951 10952 10951 10950 10950 10952 10954 10957 10959 10961 10964 10966 10968 10971 10973 10974 10976 10976 10977 10977 10977 10978 10980 10982 10982 10982 10982
10933 10932 10933 10935 10938 10939 10941 10946 10950 10951 10952 10953 10955 10954 10952 10953 10954 10955 10953 10953 10951 10951 10954 10957 10958 10961 10964 10966 10967 10968 10970 10971 10972 10974 10974 10975 10975 10976 10977 10979 10980 10981 10981
10935 10936 10938 10939 10941 10943 10945 10947 10951 10953 10954 10955 10957 10957 10956 10955 10957 10957 10957 10956 10956 10955 10956 10957 10959 10962 10964 10965 10966 10966 10967 10968 10968 10969 10971 10972 10972 10973 10974 10976 10978 10979 10979
10931 10936 10942 10945 10948 10948 10947 10950 10950 10953 10955 10956 10956 10958 10958 10957 10957 10959 10960 10959 10959 10957 10958 10959 10961 10961 10962 10962 10963 10963 10963 10964 10965 10965 10966 10967 10969 10970 10971 10973 10974 10975 10976
10929 10929 10935 10941 10943 10945 10946 10948 10949 10951 10953 10954 10955 10956 10956 10957 10957 10958 10958 10959 10961 10960 10958 10959 10961 10962 10962 10962 10961 10960 10959 10960 10960 10961 10961 10962 10964 10965 10966 10968 10970 10971 10973
10925 10924 10927 10929 10940 10942 10942 10945 10948 10950 10949 10950 10953 10954 10955 10956 10956 10957 10958 10959 10960 10959 10959 10959 10960 10960 10960 10960 10960 10958 10956 10955 10955 10955 10957 10957 10958 10959 10960 10962 10964 10966 10968
10927 10928 10932 10933 10932 10933 10939 10939 10945 10947 10949 10949 10950 10952 10953 10954 10955 10957 10956 10958 10959 10958 10957 10958 10958 10957 10957 10956 10955 10955 10954 10952 10950 10950 10949 10950 10951 10952 10954 10955 10956 10959 10962
10925 10934 10940 10944 10938 10929 10929 10936 10940 10944 10946 10947 10947 10949 10949 10951 10953 10955 10956 10957 10957 10957 10956 10955 10955 10955 10954 10952 10950 10948 10947 10946 10945 10943 10942 10942 10943 10945 10946 10948 10950 10952 10955
10921 10929 10927 10939 10931 10924 10928 10931 10937 10940 10942 10943 10945 10946 10947 10947 10950 10952 10953 10954 10953 10953 10952 10952 10951 10950 10948 10946 10944 10941 10938 10936 10934 10933 10933 10933 10935 10937 10939 10942 10943 10945 10948
10912 10913 10919 10923 10920 10917 10925 10928 10933 10935 10938 10938 10939 10942 10943 10944 10947 10948 10950 10950 10950 10950 10949 10948 10947 10945 10943 10940 10935 10930 10925 10923 10923 10923 10923 10925 10926 10929 10931 10935 10936 10939 10942
10908 10905 10906 10910 10912 10913 10918 10921 10927 10930 10930 10932 10935 10937 10938 10940 10943 10944 10945 10945 10945 10945 10945 10943 10941 10938 10935 10930 10925 10920 10915 10912 10912 10913 10914 10916 10918 10921 10924 10925 10929 10932 10934
10909 10906 10905 10908 10910 10910 10916 10918 10921 10923 10923 10926 10929 10931 10933 10936 10938 10939 10940 10940 10940 10941 10940 10938 10936 10933 10929 10924 10918 10912 10909 10907 10907 10907 10908 10908 10910 10913 10916 10918 10923 10926 10927
10912 10908 10908 10908 10908 10911 10913 10915 10916 10916 10915 10921 10924 10925 10928 10930 10932 10934 10934 10934 10934 10935 10934 10932 10929 10926 10922 10917 10913 10909 10906 10904 10904 10904 10905 10905 10905 10906 10908 10911 10914 10916 10917
10915 10915 10912 10912 10913 10914 10913 10910 10909 10909 10909 10915 10919 10921 10923 10925 10927 10928 10928 10928 10929 10928 10927 10925 10922 10919 10915 10912 10907 10905 10904 10902 10901 10901 10901 10901 10901 10901 10902 10902 10904 10907 10908